[ hide orbit diagram ]
For accurate long-term ephemerides, please instead use our Horizons system.This orbit viewer was implemented using two-body methods, and hence should not be used for determining accurate long-term trajectories (over several years or decades) or planetary encounter circumstances.
Orbital Elements at Epoch 2459000.5 (2020-May-31.0) TDB
Reference: JPL 40 (heliocentric ecliptic J2000)
Element | Value | Uncertainty (1-sigma) | Units |
e | .03915686273205855 | 3.4014e-08 | |
a | 1.979193513434303 | 3.8175e-09 | au |
q | 1.901694504708575 | 6.6166e-08 | au |
i | 26.86207090476411 | 3.4998e-06 | deg |
node | 163.3749156779691 | 7.2448e-06 | deg |
peri | 349.147236580598 | 4.6397e-05 | deg |
M | 96.24929119528721 | 4.699e-05 | deg |
tp | 2458728.589577652230 (2019-Sep-02.08957765) | 0.00013258 | TDB |
period | 1017.023095230756 2.78 | 2.9425e-06 8.056e-09 | d yr |
n | .3539742624215611 | 1.0241e-09 | deg/d |
Q | 2.056692522160031 | 3.967e-09 | au |
|
| | Orbit Determination Parameters
Additional Information
|
[ show covariance matrix ]
Physical Parameter Table
Parameter |
Symbol |
Value |
Units |
Sigma |
Reference |
Notes |
absolute magnitude |
H |
12.5 |
|
n/a |
MPO467621 |
|
diameter |
diameter |
4.605 |
km |
0.171 |
urn:nasa:pds:neowise_diameters_albedos::2.0[mainbelt] (http://adsabs.harvard.edu/abs/2012ApJ...759L...8M) |
|
rotation period |
rot_per |
3.588 |
h |
n/a |
LCDB (Rev. 2020-October); Warner et al., 2009 |
Published Reference List: [Stephens, R.D. (2003) Minor Planet Bull. 30, 69-70.] [Warner, B.D. (2009) Minor Planet Bull. 36, 172-176.] [Warner, B.D. (2013). Minor Planet Bull. 40, 26-29.] [Warner, B.D. (2014) Minor Planet Bull. 41, 144-155.] [Warner, B.D. (2016) Minor Planet Bull. 43, 57-65.] [Behrend, R. (2017) Observatoire de Geneve web site, http://obswww.unige.ch/~behrend/page_cou.html] [Warner, B.D. (2017) Minor Planet Bull. 44, 213-219.] [Tan, H.; Yeh, T.; Li, B.; Gao, X. (2018) Minor Planet Bull. 45, 57-59.] [Behrend, R. (2020) Observatoire de Geneve web site, http://obswww.unige.ch/~behrend/page_cou.html] [Stephens, R.D.; Warner, B.D. (2020) Minor Planet Bull. 47, 275-284.] |
geometric albedo |
albedo |
1.000 |
|
0.000 |
urn:nasa:pds:neowise_diameters_albedos::2.0[mainbelt] (http://adsabs.harvard.edu/abs/2012ApJ...759L...8M) |
|
B-V |
BV |
0.714 |
|
0.022 |
EAR-A-5-DDR-UBV-MEAN-VALUES-V1.2 |
#obs=1; phase=28.96 deg. |
U-B |
UB |
0.294 |
|
0.037 |
EAR-A-5-DDR-UBV-MEAN-VALUES-V1.2 |
#obs=1; phase=28.96 deg. |
Tholen spectral type |
spec_T |
E |
|
n/a |
EAR-A-5-DDR-TAXONOMY-V4.0 |
used 7 color indices; used ground-based radiometric albedo |
SMASSII spectral type |
spec_B |
Xe |
|
n/a |
EAR-A-5-DDR-TAXONOMY-V4.0 |
based on a high-resolution spectrum by Xu et al. (1995) or Bus and Binzel (2002) |
|
1025 Riema (A923 PG) Discovered 1923-Aug-12 by Reinmuth, K. at Heidelberg |
Reference: DISCOVERY.DB | Last Updated: 2003-08-29 |
|
|